Regional Weather Roundup
Issued by NWS

Home | Current Version | Previous Version | Graphics & Text | Print | Product List | Glossary Off
Versions: 1 2 3 4 5 6 7 8 9 10 11 12 13 14 15 16 17 18 19 20 21 22 23 24 25 26 27 28 29 30 31 32 33 34 35 36 37 38 39 40 41 42 43 44 45 46 47 48 49 50

921
ASUS43 KFSD 252302
RWRSD

WEATHER ROUNDUP FOR SOUTH DAKOTA
NATIONAL WEATHER SERVICE SIOUX FALLS SD
600 PM CDT TUE APR 25 2017

NOTE: "FAIR" INDICATES FEW OR NO CLOUDS BELOW 12,000 FEET WITH NO
SIGNIFICANT WEATHER AND/OR OBSTRUCTIONS TO VISIBILITY.


SDZ001>005-009-010-012>017-260000-
NORTHWEST AND NORTH CENTRAL SOUTH DAKOTA

CITY           SKY/WX    TMP DP  RH WIND       PRES   REMARKS
BUFFALO          N/A     29  26  89 NE16      29.81R WCI  17
FAITH            N/A     28  28 100 N18       29.83R WCI  15
MOBRIDGE       CLOUDY    35  24  64 N23G29    29.81S WCI  23
$$

SDZ012>016-024>037-041>051-057-063-072>074-260000-
SOUTHWEST AND SOUTH CENTRAL SOUTH DAKOTA

CITY           SKY/WX    TMP DP  RH WIND       PRES   REMARKS
RAPID CTY ARPT CLOUDY    28  25  88 N18       29.82S WCI  15
PIERRE         FLURRIES  34  29  82 N20       29.79R WCI  23
CUSTER         CLOUDY    28  22  78 N8        29.70R WCI  20
ELLSWORTH AFB  FLURRIES  28  28 100 N17       29.82  WCI  16
PHILIP         LGT SNOW  32  30  92 N14       29.83R FOG     WCI  22
PINE RIDGE     LGT SNOW  33  30  88 N13       29.77R FOG     WCI  24
SPEARFISH      LGT SNOW  27  23  86 NW7       29.85R WCI  19
WINNER         CLOUDY    37  30  75 N20       29.75R
$$

SDZ004>011-016>023-039-040-260000-
NORTHEAST SOUTH DAKOTA

CITY           SKY/WX    TMP DP  RH WIND       PRES   REMARKS
ABERDEEN       CLOUDY    35  27  72 N20G32    29.78R WCI  24
WATERTOWN      CLOUDY    34  31  88 N23G30    29.66F WCI  22
BROOKINGS      CLOUDY    36  34  92 N21       29.63S
SISSETON         N/A     37  33  85 N22G29    29.70F
$$

SDZ017-020-022-023-036>040-048>070-260000-
SOUTHEAST SOUTH DAKOTA

CITY           SKY/WX    TMP DP  RH WIND       PRES   REMARKS
SIOUX FALLS    LGT RAIN  40  40 100 N16       29.63R
HURON          CLOUDY    36  31  82 N16G28    29.73R
CHAMBERLAIN    CLOUDY    39  34  81 NW20G25   29.74R
MITCHELL       CLOUDY    37  34  89 N21G28    29.71S
YANKTON        CLOUDY    39  34  81 NW18G28   29.65R
$$

ABBREVIATIONS USED IN REMARKS
   TC - TEMPERATURE IN CELSIUS
  WCI - WIND CHILL INDEX
   HX - HEAT INDEX
  VSB - VISIBILITY





USA.gov is the U.S. government's official web portal to all federal, state and local government web resources and services.